This demonstration page uses our WeatherBlox Daily Observations layout. Learn more.

Left ArrowRight Arrow

Hourly Observations for December 28, 2015

Temp ( °F °C ) Dew Point ( °F °C ) Humidity (%) Winds ( mph kmh ) Pressure ( in mb ) Visibility ( mi km ) Precip ( " mm )
12:58 am 00:58 Cloudy 16 -9 7 -14 67 67 NNE 13 20 30.34 1027 10 16 0.00 0.00
1:58 am 01:58 Cloudy 16 -9 8 -13.2 72 72 NNE 10 17 30.29 1026 10 16 0.00 0.00
2:58 am 02:58 Mostly Clear 15 -9.3 9 -12.6 77 77 NNE 10 17 30.24 1024 10 16 0.00 0.00
3:58 am 03:58 Partly Cloudy 17 -8.6 11 -11.9 77 77 N 10 17 30.25 1025 10 16 0.00 0.00
4:25 am 04:25 Cloudy 16 -9 10 -12 79 79 N 8 13 30.27 1025 10 16 0.00 0.00
4:55 am 04:55 Cloudy 18 -8 10 -12 73 73 N 10 17 30.24 1024 10 16 0.00 0.00
4:58 am 04:58 Cloudy 17 -8.5 11 -11.6 79 79 N 12 19 30.22 1023 10 16 0.00 0.00
5:58 am 05:58 Cloudy 16 -8.7 11 -11.5 80 80 NNW 13 20 30.22 1023 10 16 0.00 0.00
6:18 am 06:18 Cloudy with Light Snow 16 -9 12 -11 86 86 NNW 10 17 30.21 1023 3 5 0.00 0.00
6:23 am 06:23 Cloudy with Light Snow 16 -9 12 -11 86 86 NNW 10 17 30.21 1023 3 5 0.00 0.00
6:33 am 06:33 Cloudy with Light Snow 16 -9 12 -11 86 86 N 10 17 30.21 1023 3 4 0.00 0.00
6:37 am 06:37 Cloudy with Light Snow 16 -9 12 -11 86 86 N 12 19 30.21 1023 3 5 0.00 0.00
6:39 am 06:39 Cloudy with Light Snow 16 -9 12 -11 86 86 N 13 20 30.21 1023 3 4 0.00 0.00
6:49 am 06:49 Cloudy with Light Snow 16 -9 12 -11 86 86 N 9 15 30.18 1022 2 3 0.00 0.00
6:58 am 06:58 Cloudy with Light Snow 16 -8.8 13 -10.7 86 86 N 8 13 30.16 1022 2 3 0.00 0.03
7:29 am 07:29 Cloudy with Light Snow 16 -9 12 -11 86 86 NNE 10 17 30.18 1022 2 3 0.00 0.00
7:45 am 07:45 Cloudy with Light Snow 16 -9 14 -10 93 93 N 14 22 30.15 1021 2 3 0.00 0.00
7:52 am 07:52 Cloudy with Light Snow 16 -9 12 -11 86 86 N 15 24 30.15 1021 2 3 0.00 0.00
7:56 am 07:56 Cloudy with Light Snow 16 -9 14 -10 93 93 N 12 19 30.15 1021 2 3 0.00 0.00
7:58 am 07:58 Cloudy with Light Snow 17 -8.6 13 -10.5 86 86 N 16 26 30.13 1020 2 3 0.00 0.03
8:01 am 08:01 Cloudy with Light Snow 16 -9 14 -10 93 93 N 16 26 30.15 1021 2 3 0.00 0.00
8:06 am 08:06 Cloudy with Light Snow 16 -9 14 -10 93 93 N 14 22 30.12 1020 2 2 0.00 0.00
8:15 am 08:15 Cloudy with Light Snow 16 -9 14 -10 93 93 N 12 19 30.12 1020 1 2 0.00 0.00
8:21 am 08:21 Cloudy with Light Snow 16 -9 14 -10 93 93 N 12 19 30.12 1020 2 2 0.00 0.00
8:29 am 08:29 Cloudy with Light Snow 18 -8 14 -10 86 86 N 13 20 30.12 1020 2 3 0.00 0.00
8:35 am 08:35 Cloudy with Light Snow 18 -8 14 -10 86 86 N 14 22 30.12 1020 2 2 0.00 0.00
8:53 am 08:53 Cloudy with Light Snow 18 -8 14 -10 86 86 N 13 20 30.09 1019 2 2 0.00 0.00
8:58 am 08:58 Cloudy with Light Snow 17 -8.2 14 -10 87 87 N 14 22 30.06 1018 2 2 0.00 0.03
9:00 am 09:00 Cloudy with Light Snow 18 -8 14 -10 86 86 N 15 24 30.09 1019 2 3 0.00 0.00
9:05 am 09:05 Cloudy with Light Snow 18 -8 14 -10 86 86 N 16 26 30.09 1019 2 3 0.00 0.00
9:17 am 09:17 Cloudy with Light Snow 18 -8 14 -10 86 86 N 16 26 30.09 1019 2 3 0.00 0.00
9:37 am 09:37 Cloudy with Light Snow 18 -8 14 -10 86 86 N 14 22 30.06 1018 2 3 0.00 0.00
9:40 am 09:40 Cloudy with Light Snow 18 -8 14 -10 86 86 N 14 22 30.06 1018 2 2 0.00 0.00
9:42 am 09:42 Cloudy with Light Snow 18 -8 14 -10 86 86 N 14 22 30.06 1018 1 2 0.00 0.00
9:45 am 09:45 Mostly Cloudy with Light Snow 18 -8 14 -10 86 86 N 15 24 30.06 1018 1 2 0.00 0.00
9:47 am 09:47 Mostly Cloudy with Light Snow 18 -8 14 -10 86 86 N 15 24 30.06 1018 1 2 0.00 0.00
9:48 am 09:48 Mostly Cloudy with Light Snow 18 -8 14 -10 86 86 N 16 26 30.06 1018 1 2 0.00 0.00
9:50 am 09:50 Mostly Cloudy with Light Snow 18 -8 16 -9 93 93 N 17 28 30.06 1018 1 1 0.00 0.00
9:53 am 09:53 Mostly Cloudy with Light Snow 18 -8 16 -9 93 93 N 14 22 30.06 1018 1 1 0.00 0.00
9:57 am 09:57 Mostly Cloudy with Light Snow 18 -8 16 -9 93 93 N 13 20 30.06 1018 1 1 0.00 0.00
10:02 am 10:02 Mostly Cloudy with Light Snow 19 -7 16 -9 86 86 N 14 22 30.06 1018 1 2 0.00 0.00
10:05 am 10:05 Mostly Cloudy with Light Snow 19 -7 16 -9 86 86 N 13 20 30.06 1018 1 2 0.00 0.00
10:31 am 10:31 Mostly Cloudy with Light Snow 19 -7 16 -9 86 86 N 13 20 30.03 1017 1 2 0.00 0.00
10:34 am 10:34 Mostly Cloudy with Light Snow 19 -7 16 -9 86 86 N 13 20 30.03 1017 1 2 0.00 0.00
10:43 am 10:43 Mostly Cloudy with Light Snow 19 -7 16 -9 86 86 N 15 24 30.03 1017 1 2 0.00 0.00
10:46 am 10:46 Cloudy with Light Snow 19 -7 18 -8 93 93 N 15 24 30.03 1017 1 2 0.00 0.00
10:58 am 10:58 Cloudy with Light Snow 20 -6.4 17 -8.2 87 87 N 15 24 29.99 1016 1 2 0.00 0.03
11:00 am 11:00 Mostly Cloudy with Light Snow 21 -6 18 -8 86 86 N 15 24 30.00 1016 1 2 0.00 0.00
11:03 am 11:03 Mostly Cloudy with Light Snow 21 -6 18 -8 86 86 N 13 20 29.97 1015 1 2 0.00 0.00
11:11 am 11:11 Mostly Cloudy with Light Snow 21 -6 18 -8 86 86 N 16 26 29.97 1015 1 2 0.00 0.00
11:12 am 11:12 Mostly Cloudy with Light Snow 21 -6 18 -8 86 86 N 14 22 29.97 1015 1 2 0.00 0.00
11:15 am 11:15 Cloudy with Light Snow 21 -6 18 -8 86 86 N 15 24 29.97 1015 1 2 0.00 0.00
11:19 am 11:19 Cloudy with Light Snow 21 -6 18 -8 86 86 N 13 20 29.97 1015 1 2 0.00 0.00
11:47 am 11:47 Cloudy with Light Snow 21 -6 18 -8 86 86 N 15 24 29.94 1014 2 2 0.00 0.00
11:58 am 11:58 Windy with Snow Likely 22 -5.8 18 -7.8 86 86 N 20 31 29.92 1013 2 2 0.00 0.03
12:08 pm 12:08 Cloudy with Light Snow 21 -6 18 -8 86 86 N 14 22 29.88 1012 1 2 0.00 0.00
12:13 pm 12:13 Cloudy with Light Snow 21 -6 18 -8 86 86 N 15 24 29.88 1012 1 2 0.00 0.00
12:14 pm 12:14 Cloudy with Light Snow 21 -6 18 -8 86 86 N 15 24 29.88 1012 1 2 0.00 0.00
12:16 pm 12:16 Cloudy with Light Snow 21 -6 18 -8 86 86 N 14 22 29.88 1012 1 2 0.00 0.00
12:36 pm 12:36 Cloudy with Light Snow 21 -6 19 -7 93 93 N 14 22 29.88 1012 1 1 0.00 0.00
12:43 pm 12:43 Cloudy with Freezing Fog 21 -6 18 -8 86 86 N 14 22 29.85 1011 1 1 0.00 0.00
12:46 pm 12:46 Cloudy with Light Snow 21 -6 18 -8 86 86 N 14 22 29.85 1011 1 1 0.00 0.00
12:48 pm 12:48 Cloudy with Light Snow 21 -6 19 -7 93 93 N 14 22 29.85 1011 1 1 0.00 0.00
12:55 pm 12:55 Mostly Cloudy with Light Snow 21 -6 19 -7 93 93 N 16 26 29.85 1011 1 1 0.00 0.00
12:58 pm 12:58 Mostly Cloudy with Light Snow 22 -5.7 19 -7.5 87 87 N 15 24 29.86 1011 1 1 0.00 0.03
1:03 pm 13:03 Mostly Cloudy with Light Snow 21 -6 19 -7 93 93 N 15 24 29.85 1011 1 2 0.00 0.00
1:06 pm 13:06 Mostly Cloudy with Light Snow 21 -6 18 -8 86 86 N 15 24 29.85 1011 1 2 0.00 0.00
1:13 pm 13:13 Mostly Cloudy with Light Snow 21 -6 18 -8 86 86 N 15 24 29.85 1011 1 2 0.00 0.00
1:28 pm 13:28 Cloudy with Light Snow 21 -6 18 -8 86 86 N 15 24 29.83 1010 1 2 0.00 0.00
1:31 pm 13:31 Cloudy with Light Snow 21 -6 18 -8 86 86 N 14 22 29.83 1010 1 2 0.00 0.00
1:35 pm 13:35 Cloudy with Light Snow 21 -6 18 -8 86 86 N 15 24 29.83 1010 2 2 0.00 0.00
1:44 pm 13:44 Cloudy with Light Snow 23 -5 18 -8 80 80 N 14 22 29.83 1010 2 3 0.00 0.00
1:55 pm 13:55 Cloudy with Light Snow 23 -5 18 -8 80 80 N 18 30 29.83 1010 2 3 0.00 0.00
1:58 pm 13:58 Windy with Snow Likely 22 -5.4 18 -7.6 85 85 N 20 31 29.83 1010 2 3 0.00 0.03
2:07 pm 14:07 Cloudy with Light Snow 23 -5 18 -8 80 80 N 17 28 29.83 1010 2 3 0.00 0.00
2:25 pm 14:25 Cloudy with Light Snow 23 -5 18 -8 80 80 N 14 22 29.83 1010 3 4 0.00 0.00
2:30 pm 14:30 Cloudy with Light Snow 23 -5 19 -7 86 86 N 15 24 29.83 1010 4 6 0.00 0.00
2:58 pm 14:58 Cloudy with Light Snow 23 -5.2 19 -7.4 85 85 N 14 22 29.84 1011 3 5 0.00 0.00
3:18 pm 15:18 Mostly Cloudy with Light Snow 23 -5 19 -7 86 86 NNW 15 24 29.83 1010 2 3 0.00 0.00
3:23 pm 15:23 Cloudy with Light Snow 23 -5 19 -7 86 86 NNW 12 19 29.83 1010 3 4 0.00 0.00
3:49 pm 15:49 Cloudy with Light Snow 23 -5 19 -7 86 86 NW 14 22 29.85 1011 2 2 0.00 0.00
3:58 pm 15:58 Cloudy with Light Snow 23 -5.2 19 -7.2 86 86 NNW 15 24 29.85 1011 2 3 0.00 0.00
4:07 pm 16:07 Mostly Cloudy with Light Snow 23 -5 19 -7 86 86 NNW 16 26 29.85 1011 2 2 0.00 0.00
4:16 pm 16:16 Mostly Cloudy with Light Snow 23 -5 19 -7 86 86 NNW 15 24 29.85 1011 1 2 0.00 0.00
4:33 pm 16:33 Mostly Cloudy with Light Snow 23 -5 19 -7 86 86 NNW 15 24 29.85 1011 7 11 0.00 0.00
4:51 pm 16:51 Cloudy with Light Snow 23 -5 19 -7 86 86 NNW 17 28 29.83 1010 1 2 0.00 0.00
4:58 pm 16:58 Mostly Cloudy with Light Snow 22 -5.4 19 -7.2 87 87 NNW 16 26 29.84 1011 2 2 0.00 0.00
5:04 pm 17:04 Cloudy with Light Snow 23 -5 19 -7 86 86 NNW 18 30 29.83 1010 2 3 0.00 0.00
5:14 pm 17:14 Cloudy with Light Snow 21 -6 18 -8 86 86 NNW 16 26 29.83 1010 3 5 0.00 0.00
5:58 pm 17:58 Cloudy with Light Snow 22 -5.6 18 -7.9 84 84 NNW 14 22 29.84 1011 6 10 0.00 0.00
6:51 pm 18:51 Cloudy 21 -6 18 -8 86 86 NNW 15 24 29.83 1010 8 13 0.00 0.00
6:58 pm 18:58 Cloudy 21 -6 18 -8 86 86 NNW 9 15 29.84 1011 8 13 0.00 0.03
7:58 pm 19:58 Cloudy 21 -6.3 16 -8.9 82 82 NNW 12 19 29.84 1011 10 16 0.00 0.00
8:58 pm 20:58 Cloudy 21 -6.3 16 -9 81 81 NNW 9 15 29.85 1011 10 16 0.00 0.00
9:53 pm 21:53 Cloudy 21 -6 16 -9 80 80 WNW 13 20 29.88 1012 10 16 0.00 0.00
9:58 pm 21:58 Cloudy 20 -6.5 16 -8.9 83 83 WNW 14 22 29.89 1012 10 16 0.00 0.00
10:02 pm 22:02 Cloudy 19 -7 16 -9 86 86 NW 13 20 29.88 1012 10 16 0.00 0.00
10:06 pm 22:06 Cloudy 19 -7 16 -9 86 86 NW 13 20 29.88 1012 10 16 0.00 0.00
10:44 pm 22:44 Cloudy with Light Snow 21 -6 16 -9 80 80 NW 9 15 29.88 1012 10 16 0.00 0.00
10:58 pm 22:58 Cloudy with Light Snow 20 -6.4 16 -8.8 83 83 NW 13 20 29.91 1013 10 16 0.00 0.03

Powered by AerisWeather